Temperature
15 15 15 15 15 15 15 15 15 15 15 15 15 15 15 15 15 15 15 15 15 15 15 16 16 16 16 16 15 16 16 16 16 16 16 16 16 16 16 16 16 16 16
15 15 15 15 15 15 15 15 15 15 15 15 15 15 15 15 15 15 15 15 15 15 15 15 15 16 16 16 15 15 16 16 16 16 16 16 16 16 16 16 16 16 16
15 15 15 15 15 15 15 15 15 15 15 15 15 15 15 15 15 15 15 15 15 15 15 15 15 15 15 15 15 15 15 15 15 15 15 16 16 15 15 15 16 15 16
15 15 15 15 15 15 15 15 15 15 15 15 15 15 15 15 15 15 15 15 15 15 15 15 15 15 15 15 15 15 15 15 15 15 15 15 15 15 15 15 15 15 15
15 15 15 15 15 15 15 15 15 15 15 15 14 14 14 14 14 14 15 15 15 15 15 15 15 15 15 15 15 15 15 15 15 15 15 15 15 15 15 15 15 15 15
15 15 15 15 15 15 15 15 15 15 15 14 14 14 14 14 14 14 14 14 14 14 15 15 15 15 15 15 15 15 15 15 15 15 15 14 15 14 14 14 14 15 14
15 15 15 15 15 15 15 15 15 15 15 14 14 14 14 14 14 14 14 14 14 14 14 14 14 15 15 15 15 15 15 15 14 14 14 14 14 14 14 14 14 14 14
15 15 15 15 15 15 15 15 15 15 14 14 14 14 14 14 14 14 14 14 14 14 14 14 14 14 14 14 14 14 14 14 14 14 14 14 14 14 14 14 14 14 14
15 15 15 15 15 15 15 15 15 15 15 15 15 15 15 14 14 14 14 14 14 14 14 14 14 14 14 14 14 14 14 14 14 14 14 14 14 14 14 14 13 13 13
15 15 15 15 15 15 15 15 15 15 15 15 15 15 15 14 14 14 14 14 14 14 14 13 13 14 14 14 14 14 14 14 14 14 14 14 14 13 13 13 13 13 13
15 15 15 15 15 15 15 15 15 15 15 15 15 15 14 14 14 14 14 14 13 13 13 13 13 13 13 13 13 13 13 14 14 14 14 13 13 13 13 13 13 13 13
15 15 15 15 15 15 15 15 15 15 15 15 15 15 14 15 15 14 14 14 13 13 13 13 13 13 13 13 13 13 13 13 13 13 13 13 13 13 13 13 13 13 13
15 15 15 15 15 15 15 15 15 15 15 15 15 15 14 14 14 14 14 14 13 13 13 13 13 13 13 13 13 13 13 13 13 13 13 13 13 13 13 12 12 12 12
15 15 15 15 15 15 15 15 14 15 15 14 14 14 14 14 14 14 14 14 13 13 13 13 13 13 13 13 13 13 13 13 13 13 12 12 12 12 12 12 12 12 12
15 15 15 15 15 14 14 14 14 14 14 14 14 14 14 14 14 14 14 14 14 13 13 13 12 12 12 12 12 12 12 12 12 12 12 12 12 12 12 12 12 12 12
15 15 15 15 14 14 14 14 14 14 14 14 14 14 14 14 14 14 13 13 13 13 13 12 12 12 12 12 12 12 12 12 12 12 12 12 12 11 11 11 11 11 11
15 15 15 14 14 14 14 14 14 14 14 14 14 14 14 14 14 13 13 13 13 13 13 12 12 12 12 12 12 12 12 12 11 11 11 11 11 11 11 11 10 10 10
15 15 15 14 14 14 14 14 14 14 14 14 14 14 13 13 13 13 13 13 13 13 13 12 12 12 12 12 12 11 11 11 11 11 11 11 10 10 10 10 10 10 10
15 15 15 15 14 14 14 14 14 14 14 14 14 13 13 13 13 13 13 13 13 13 12 12 12 12 12 12 11 11 11 11 11 11 10 10 10 10 10 10 9 9 9
15 15 15 15 14 14 14 14 14 14 14 14 13 13 13 13 13 13 13 13 12 12 12 12 12 12 12 11 11 11 11 11 11 10 10 10 10 9 9 9 9 9 9
15 15 15 15 14 14 14 14 14 14 14 14 13 13 13 13 13 13 13 12 12 12 12 12 12 12 12 11 11 11 11 11 10 10 10 10 9 9 9 9 9 8 8
15 15 15 15 14 14 14 14 14 14 14 13 13 13 13 13 13 13 12 12 12 12 12 12 12 12 11 11 11 11 10 10 10 10 9 9 9 9 9 9 8 8 8
15 15 15 15 14 14 14 14 14 14 13 13 13 13 13 13 13 13 12 12 12 12 12 11 11 11 11 11 10 10 10 10 9 9 9 9 9 9 8 8 8 8 7
15 15 15 14 14 14 14 14 14 13 13 13 13 13 13 13 13 12 12 12 12 12 11 11 11 11 11 10 10 10 10 9 9 9 9 9 8 8 8 8 7 7 7
15 15 15 14 14 14 14 14 13 13 13 13 13 13 13 13 12 12 12 12 12 12 11 11 11 11 10 10 10 10 9 9 9 9 8 8 8 8 8 7 7 7 6
15 15 15 14 14 14 14 14 13 13 13 13 13 13 13 12 12 12 12 12 12 12 11 11 11 10 10 10 10 9 9 9 9 8 8 8 7 7 7 7 7 6 6
Wind_Speed
2 3 4 5 5 6 5 5 6 7 7 7 8 8 7 8 9 9 9 12 12 11 11 11 9 9 9 8 8 8 9 10 10 10 10 10 10 10 10 9 8 7 6
3 3 3 3 4 5 5 6 6 6 5 6 7 8 8 8 9 10 10 11 12 12 12 11 10 9 9 9 8 8 9 9 10 10 10 10 10 10 10 9 9 8 7
4 4 3 2 3 5 6 6 7 6 5 6 6 7 7 8 8 9 10 10 10 11 12 12 12 10 10 10 9 9 10 10 10 10 10 10 10 10 10 10 9 8 8
5 5 3 3 4 6 5 4 4 5 5 5 5 5 6 7 8 9 9 10 10 10 11 13 13 12 12 11 11 10 10 10 10 10 10 9 9 10 10 10 9 9 8
6 6 4 4 5 5 4 4 4 4 4 5 5 5 5 5 6 8 8 9 10 10 10 11 13 14 13 12 11 11 10 10 10 10 10 10 10 10 10 9 9 9 10
6 6 5 5 5 4 4 4 4 4 4 3 5 6 5 5 6 7 7 8 9 10 11 10 11 11 13 13 12 12 11 10 10 10 10 11 10 10 10 11 10 11 11
5 6 4 4 4 4 4 4 4 5 4 2 4 4 4 5 6 6 6 7 8 9 10 11 10 10 10 13 13 12 12 12 11 11 11 11 11 12 12 13 13 12 11
5 5 5 3 3 4 4 4 3 3 2 3 2 3 3 4 4 5 5 5 6 7 8 9 10 10 10 10 12 13 13 12 12 12 12 12 12 13 13 13 13 13 12
5 5 5 4 3 3 3 3 3 3 2 2 2 3 3 1 1 3 4 5 6 6 6 8 9 10 10 10 11 12 14 13 12 12 12 12 13 13 13 13 13 13 13
5 5 5 5 4 3 3 2 2 2 3 2 2 3 2 3 3 1 3 4 5 6 6 6 8 9 10 10 11 13 14 14 13 12 12 13 13 13 13 13 13 13 13
4 4 4 4 4 3 3 3 3 3 2 2 2 2 3 3 3 3 1 3 4 4 4 5 6 7 9 10 10 11 12 12 13 13 13 13 14 14 14 14 14 14 13
2 3 3 4 3 3 3 3 3 3 3 3 2 2 2 2 2 3 2 1 1 2 3 4 5 6 7 8 9 10 11 11 12 12 13 13 13 13 13 14 14 14 14
1 1 2 2 2 3 3 3 3 3 3 3 3 2 2 2 2 3 4 2 1 2 3 3 4 5 6 7 8 9 10 10 10 11 11 12 12 12 13 13 14 14 14
1 1 2 2 3 3 3 4 3 2 3 3 3 3 3 2 2 2 3 4 2 2 3 2 2 4 5 6 7 8 8 9 9 9 9 10 11 11 11 12 13 13 14
2 2 2 2 3 3 4 4 3 2 3 3 3 3 3 2 2 2 2 3 4 2 1 2 2 3 5 6 7 7 7 7 8 8 8 9 9 9 10 11 11 12 13
2 3 2 2 2 3 3 3 3 2 3 3 2 3 3 2 2 2 2 2 2 4 2 1 1 2 3 4 6 7 6 7 7 8 8 8 8 8 9 9 10 11 11
3 3 3 3 2 2 2 3 2 3 3 2 2 3 2 2 2 2 2 2 2 3 3 0 1 1 2 2 5 6 7 7 6 7 7 7 7 7 7 8 9 10 10
4 3 3 3 3 2 2 3 3 3 3 2 2 2 2 2 2 2 2 2 2 2 3 2 1 1 1 2 2 3 5 5 6 7 7 7 7 7 7 7 8 9 9
4 3 4 3 3 2 2 2 3 3 2 2 2 2 2 3 2 1 2 2 2 2 2 2 0 1 1 1 2 3 4 5 5 6 6 7 7 7 7 7 7 8 9
4 4 4 4 3 3 3 3 3 3 2 2 2 2 2 3 3 3 2 3 3 3 3 2 1 1 1 1 1 2 3 3 3 5 5 6 7 8 8 7 7 8 8
4 4 4 3 3 3 3 4 3 3 3 2 1 1 2 3 4 4 3 4 4 3 2 2 1 0 1 1 1 1 1 2 2 2 3 4 5 6 8 7 7 7 8
4 4 4 4 4 4 5 7 6 4 3 3 2 1 1 1 2 2 3 5 6 5 4 3 1 2 2 2 1 1 0 1 2 2 1 3 3 3 5 6 6 7 7
4 4 4 4 4 5 7 7 7 5 4 3 3 2 1 1 2 2 1 2 2 3 5 5 4 4 3 4 2 1 1 1 2 3 1 2 2 3 4 5 6 6 6
4 4 4 5 4 5 7 7 7 5 4 3 3 3 3 2 2 3 3 2 0 0 2 3 4 4 4 4 5 3 3 1 2 2 0 1 2 2 3 5 6 6 6
4 4 4 5 5 5 7 8 7 4 3 3 3 3 4 3 4 5 4 3 0 1 1 2 2 1 1 2 4 3 1 1 2 2 1 1 2 2 2 3 5 6 6
4 4 4 4 5 5 6 8 8 4 4 3 2 2 4 5 5 5 5 4 3 2 0 1 2 2 3 2 2 3 3 2 1 2 1 1 1 1 3 2 3 5 6
Wind_Direction
69 63 62 63 67 69 70 67 69 68 65 67 69 67 59 53 49 47 44 52 54 53 54 54 53 54 59 61 62 64 66 66 61 56 55 51 48 46 46 45 47 49 51
96 86 72 67 71 75 77 80 79 74 66 66 62 61 57 53 52 50 45 43 44 47 51 51 50 51 57 61 63 64 64 64 63 59 55 51 49 47 47 46 46 47 50
103 102 93 77 82 89 85 82 75 72 68 65 57 52 52 50 52 49 48 42 37 37 42 44 44 50 57 61 64 67 64 63 63 59 56 52 49 46 47 47 48 48 47
104 104 95 82 93 96 91 83 71 72 66 65 60 47 45 47 48 50 49 44 42 37 34 40 43 49 57 59 60 63 63 62 61 59 55 53 49 46 45 45 43 43 40
102 105 98 93 98 92 84 91 77 84 82 74 73 57 44 42 40 48 46 43 43 42 39 37 39 44 50 54 57 61 62 60 58 56 54 52 49 46 44 42 42 39 37
97 102 100 94 97 91 80 83 88 76 80 81 79 63 48 44 47 46 42 42 42 43 43 43 40 38 43 46 49 55 57 57 56 55 53 51 49 45 42 41 43 44 42
95 99 97 90 89 93 100 100 94 82 65 66 77 55 36 41 49 42 39 40 34 35 42 44 43 41 39 40 42 47 50 52 54 55 54 52 50 48 46 45 45 43 41
88 104 102 97 95 98 92 87 95 94 63 45 99 93 44 19 21 31 34 38 29 30 35 37 41 44 43 42 39 43 46 49 53 54 54 53 51 49 46 44 42 39 37
81 95 107 107 99 102 108 101 104 114 115 47 59 125 127 173 349 6 28 35 31 32 27 31 37 41 41 41 38 39 45 48 51 53 51 49 48 47 44 41 38 34 32
73 86 99 104 99 93 103 107 96 106 121 105 58 56 96 141 131 61 6 19 31 37 30 31 31 35 37 38 39 42 45 47 49 49 49 47 45 43 41 38 36 34 31
59 80 96 100 95 92 97 92 90 92 101 121 118 101 80 66 78 120 85 0 18 24 29 27 27 29 31 33 35 41 46 45 46 47 47 46 45 43 41 37 34 32 29
40 62 90 95 98 96 98 99 98 96 93 96 99 106 128 125 124 120 126 85 29 358 18 24 25 19 23 26 32 38 42 43 45 45 44 43 42 41 39 36 33 31 28
63 59 87 98 103 110 111 107 98 93 95 101 106 104 107 120 138 130 126 124 77 358 5 17 14 14 19 21 24 32 36 39 39 41 41 40 38 36 36 34 32 29 27
165 138 116 112 114 114 109 102 89 91 94 97 101 106 99 96 121 136 141 136 101 26 17 349 355 10 12 19 21 29 29 36 36 37 37 37 36 34 33 31 28 26 24
153 133 126 115 106 105 105 100 91 83 87 84 93 103 101 94 105 113 129 140 140 132 330 322 340 346 6 21 21 26 23 28 32 33 34 35 34 32 31 29 27 23 20
138 135 133 129 120 109 107 107 100 88 89 79 94 100 92 91 92 96 113 112 126 144 165 279 293 328 2 22 25 26 23 24 27 30 30 29 29 30 29 27 25 21 19
150 149 146 141 135 128 121 118 116 109 102 84 81 101 90 94 95 87 94 99 103 122 140 300 326 346 8 11 11 19 21 21 22 26 27 27 27 27 24 22 21 19 17
165 163 154 145 142 144 143 139 138 129 129 128 116 110 106 108 95 88 98 104 112 125 143 155 320 340 343 346 358 4 12 18 17 19 22 24 23 22 21 19 16 15 14
164 159 152 157 160 157 154 157 150 147 149 153 149 147 154 132 125 119 115 118 117 114 121 143 209 331 341 359 14 10 13 7 11 14 21 23 23 20 16 13 11 11 12
168 168 168 171 174 171 166 164 152 146 141 140 156 167 169 167 173 164 152 150 133 117 117 125 123 338 329 337 34 9 353 355 354 6 13 14 18 18 13 10 10 12 11
180 177 173 173 175 176 174 167 163 158 155 150 147 186 192 184 186 175 167 167 152 141 136 133 150 349 315 328 303 288 315 326 331 1 0 2 7 10 4 3 7 7 6
175 171 180 179 185 194 180 177 170 167 167 168 186 240 250 196 181 173 171 168 166 163 168 165 187 209 248 239 236 230 287 354 321 338 5 330 359 345 346 354 358 2 2
174 176 185 183 194 206 193 188 185 172 173 186 195 201 192 128 129 122 117 136 168 186 183 175 184 214 219 216 190 213 225 227 257 290 341 305 325 312 327 344 352 354 356
177 185 191 194 199 213 203 196 187 170 174 194 203 198 191 213 185 160 140 109 67 252 201 183 194 218 221 207 193 196 202 220 281 309 168 270 303 295 317 329 340 347 353
183 188 191 193 200 221 210 197 175 160 175 204 214 201 195 212 208 176 151 150 139 311 112 168 185 206 242 214 171 135 135 105 303 296 271 227 287 297 303 309 325 338 345
188 185 195 200 203 218 210 196 177 167 185 210 227 224 215 212 210 189 174 172 195 244 211 62 44 26 35 46 149 164 179 181 232 278 265 220 286 326 314 303 330 339 344
Height
1544 1544 1544 1544 1544 1544 1544 1544 1544 1544 1544 1544 1544 1544 1544 1544 1544 1543 1543 1543 1542 1542 1541 1541 1540 1539 1539 1540 1540 1540 1540 1540 1540 1539 1539 1539 1538 1538 1537 1536 1536 1535 1535
1545 1545 1545 1545 1545 1545 1546 1546 1546 1546 1546 1546 1546 1546 1546 1546 1545 1545 1544 1544 1543 1543 1542 1541 1540 1538 1538 1539 1540 1540 1540 1540 1540 1540 1539 1539 1539 1538 1538 1537 1536 1536 1536
1547 1546 1546 1546 1547 1547 1547 1547 1547 1547 1547 1547 1547 1547 1547 1547 1547 1546 1546 1545 1545 1544 1543 1542 1539 1537 1537 1539 1540 1541 1541 1541 1541 1540 1540 1540 1539 1539 1538 1537 1537 1536 1536
1548 1548 1548 1548 1548 1548 1548 1548 1549 1549 1549 1549 1549 1549 1549 1549 1548 1548 1548 1547 1546 1545 1544 1543 1540 1538 1538 1540 1541 1542 1541 1541 1541 1541 1540 1540 1539 1539 1538 1538 1537 1537 1536
1549 1549 1549 1549 1549 1549 1549 1550 1550 1550 1550 1550 1550 1550 1550 1550 1550 1550 1549 1548 1548 1547 1546 1545 1543 1542 1542 1542 1542 1542 1542 1542 1542 1541 1541 1540 1540 1539 1538 1538 1537 1537 1536
1550 1550 1550 1550 1550 1550 1551 1551 1551 1551 1551 1552 1552 1552 1552 1552 1552 1551 1551 1550 1549 1548 1547 1546 1545 1545 1544 1544 1544 1544 1543 1543 1542 1542 1541 1540 1540 1539 1539 1538 1537 1536 1535
1551 1551 1551 1551 1551 1551 1552 1552 1552 1552 1552 1552 1553 1553 1554 1553 1553 1553 1552 1552 1551 1550 1549 1548 1547 1547 1546 1546 1545 1545 1544 1544 1543 1542 1542 1541 1540 1540 1539 1538 1538 1537 1536
1552 1552 1552 1552 1552 1552 1553 1553 1553 1553 1553 1553 1554 1554 1554 1556 1555 1554 1554 1553 1552 1551 1551 1549 1549 1548 1548 1547 1547 1546 1546 1545 1544 1543 1543 1542 1541 1540 1540 1539 1538 1537 1536
1552 1552 1553 1553 1553 1553 1553 1554 1554 1554 1554 1554 1554 1555 1554 1555 1556 1556 1555 1555 1554 1553 1552 1551 1550 1550 1550 1550 1549 1548 1547 1546 1545 1545 1544 1543 1542 1541 1540 1539 1538 1537 1536
1553 1553 1553 1554 1554 1554 1554 1554 1554 1555 1555 1555 1555 1555 1555 1555 1555 1556 1557 1556 1555 1555 1554 1553 1552 1552 1552 1551 1551 1550 1549 1548 1547 1546 1545 1544 1543 1542 1541 1540 1539 1537 1536
1553 1554 1554 1554 1555 1555 1555 1555 1555 1555 1555 1555 1555 1555 1555 1555 1556 1556 1557 1557 1557 1556 1555 1555 1555 1554 1554 1553 1552 1551 1550 1549 1548 1547 1547 1545 1544 1543 1542 1540 1539 1537 1536
1554 1554 1554 1555 1555 1555 1555 1556 1556 1556 1556 1556 1556 1556 1556 1556 1556 1556 1556 1557 1557 1557 1557 1557 1556 1556 1555 1554 1553 1553 1552 1551 1550 1549 1548 1546 1545 1544 1542 1540 1539 1537 1535
1554 1554 1555 1555 1555 1556 1556 1556 1556 1556 1556 1556 1556 1556 1556 1556 1557 1557 1557 1557 1557 1558 1558 1558 1557 1557 1556 1555 1555 1554 1553 1551 1550 1549 1548 1547 1545 1544 1542 1540 1539 1537 1535
1554 1554 1555 1555 1556 1556 1557 1557 1557 1557 1557 1557 1557 1557 1557 1557 1557 1557 1557 1557 1557 1558 1558 1558 1558 1557 1556 1556 1555 1554 1553 1552 1551 1550 1548 1547 1545 1544 1542 1540 1538 1536 1534
1554 1554 1555 1555 1556 1556 1557 1557 1557 1557 1557 1557 1557 1557 1557 1557 1557 1558 1558 1558 1558 1558 1558 1558 1558 1557 1557 1556 1555 1554 1553 1552 1551 1550 1548 1546 1545 1543 1541 1540 1538 1535 1533
1553 1554 1555 1555 1556 1557 1557 1558 1558 1558 1558 1558 1558 1558 1558 1558 1558 1558 1558 1558 1558 1558 1557 1558 1557 1557 1557 1556 1555 1554 1553 1552 1551 1549 1547 1546 1544 1543 1541 1539 1537 1535 1532
1553 1554 1554 1555 1556 1557 1557 1557 1558 1558 1558 1558 1558 1558 1558 1558 1558 1558 1558 1558 1558 1557 1557 1557 1557 1557 1556 1556 1555 1554 1553 1551 1550 1548 1547 1545 1543 1542 1540 1538 1536 1534 1532
1552 1553 1554 1555 1556 1556 1557 1557 1557 1558 1558 1558 1558 1558 1558 1558 1558 1558 1557 1557 1557 1557 1557 1556 1556 1556 1556 1555 1554 1553 1552 1551 1549 1548 1546 1544 1543 1541 1539 1537 1535 1533 1531
1552 1553 1553 1554 1555 1555 1556 1556 1557 1557 1557 1557 1557 1557 1557 1557 1557 1557 1557 1557 1557 1556 1556 1556 1555 1555 1555 1554 1553 1552 1551 1550 1548 1547 1545 1543 1542 1540 1538 1536 1534 1532 1530
1550 1552 1553 1553 1554 1555 1555 1556 1556 1557 1557 1557 1557 1557 1557 1557 1557 1557 1556 1556 1556 1556 1556 1555 1555 1554 1554 1553 1552 1551 1550 1549 1547 1546 1544 1543 1541 1539 1537 1535 1533 1531 1528
1549 1550 1551 1552 1553 1553 1554 1555 1555 1556 1556 1556 1556 1556 1556 1556 1556 1556 1556 1556 1555 1555 1555 1554 1553 1553 1552 1551 1550 1549 1548 1547 1545 1544 1543 1541 1540 1538 1536 1533 1531 1529 1527
1547 1549 1550 1551 1551 1552 1553 1553 1554 1555 1555 1555 1555 1555 1555 1555 1555 1555 1555 1555 1554 1554 1553 1553 1552 1551 1550 1550 1549 1548 1547 1545 1544 1543 1541 1540 1538 1536 1534 1532 1530 1528 1525
1546 1547 1548 1549 1550 1550 1551 1552 1553 1553 1554 1554 1554 1554 1554 1554 1554 1553 1553 1553 1553 1552 1552 1552 1550 1550 1549 1548 1547 1546 1545 1543 1542 1541 1539 1537 1536 1534 1532 1530 1528 1526 1524
1544 1545 1546 1547 1548 1549 1550 1550 1551 1552 1552 1552 1552 1553 1552 1552 1552 1552 1551 1551 1550 1550 1550 1549 1549 1548 1547 1546 1545 1545 1543 1542 1540 1539 1537 1535 1533 1531 1529 1528 1526 1523 1521
1541 1543 1544 1545 1546 1547 1548 1549 1549 1549 1550 1550 1550 1550 1550 1550 1550 1549 1549 1548 1548 1548 1547 1547 1546 1546 1545 1544 1543 1542 1540 1539 1537 1536 1535 1533 1530 1528 1526 1525 1523 1521 1519
1539 1540 1541 1542 1543 1544 1545 1546 1547 1547 1547 1547 1547 1547 1547 1547 1547 1547 1546 1546 1545 1545 1545 1544 1544 1543 1542 1541 1540 1539 1538 1536 1534 1533 1532 1530 1528 1526 1523 1521 1520 1518 1516